P/2021 P3 ( PanSTARRS )

Japanese version
Home page
Updated on November 15, 2021

---------------------------------------------------------------------

* Profile

Discovery Date August 11, 2021
Magnitude 20.6 mag
Discoverer Pan-STARRS 1 telescope (Haleakala)

* Pictures

* Orbital Elements

Epoch 2021 July 5.0 TT = JDT 2459400.5
T 2021 May 31.11086 TT                                  Rudenko
q   2.9160837            (2000.0)            P               Q
n   0.10593648     Peri.  334.24617     +0.88836397     +0.45892582
a   4.4235643      Node   358.23924     -0.30109465     +0.55924700
e   0.3407842      Incl.   27.14745     -0.34662872     +0.69038387
P   9.30
From 87 observations 2021 Aug. 3-Oct. 10, mean residual 0".5.

* Magnitudes Graph

        m1 = 13.0 + 5 log d + 10.0 log r

---------------------------------------------------------------------

The orbital elements are published on M.P.E.C. 2021-U109.
The magnitudes graphs are made with Comet for Windows.

---------------------------------------------------------------------

Copyright(C) Seiichi Yoshida (comet@aerith.net). All rights reserved.